Location: Hohe Wand Kleine Kanzel
(47.8330°N, 16.0170°E)
Time: 00:47:58
(UTC+02:00)

Tianhe-1 - Visible Passes

Search period start: 23 June 2021 00:00
Search period end: 03 July 2021 00:00
Orbit: 375 x 385 km, 41.5° (Epoch: 22 June)

Date Brightness Start Highest point End Pass type
(mag) Time Alt. Az. Time Alt. Az. Time Alt. Az.
23 Jun 3.0 03:26:37 14° S 03:27:23 15° SSE 03:29:20 10° ESE visible
24 Jun 2.5 04:00:12 11° SW 04:02:35 23° S 04:05:09 10° ESE visible
25 Jun 2.7 03:01:36 19° SSE 03:01:36 19° SSE 03:03:50 10° ESE visible
26 Jun 2.3 03:35:01 18° SW 03:36:28 25° S 03:39:07 10° ESE visible
27 Jun 2.9 02:36:17 18° SE 02:36:17 18° SE 02:37:40 10° ESE visible
27 Jun 2.4 04:08:47 10° WSW 04:11:20 23° S 04:13:54 10° SE visible
28 Jun 2.1 03:09:40 25° S 03:09:53 25° S 03:12:31 10° SE visible
29 Jun 2.5 03:43:10 16° SW 03:44:28 20° SSW 03:46:50 10° SE visible
30 Jun 3.4 02:44:49 13° SE 02:44:49 13° SE 02:45:21 10° SE visible
30 Jun 3.1 04:17:40 10° SW 04:18:49 12° SSW 04:19:58 10° S visible
01 Jul 3.5 03:19:04 10° SSE 03:19:04 10° SSE 03:19:06 10° SSE visible
